TRANSIT 11 DEB, 11991

Orbit data source: Space-Track

TRANSIT 11 DEB, 11991 is space debris in LEO originally from a launch on Fri, 28 Jan 1966 UTC launched from the Air Force Western Test Range (AFWTR). Debris objects in space refer to the collection of defunct objects orbiting the Earth. Examples of debris include non-operational satellites, rocket bodies, and fragments generated from explosions, collisions, or faulty payload assembly.

Loading next visibility...
Identifier
11991, 1966-005H
Orbit
LEO
Country
Flag of USUS
Related business
Manufacturer
Unknown
Mission
Spacecraft
Bus & Motor
Unknown
Mass
Unknown
Launch date (UTC)
1966-01-28 (60 years ago)
Launch vehicle
Unknown
Launch site
Air Force Western Test Range (AFWTR)
Object type
Payload
Rocket body
Debris
Shape & HBR
Unknown shape, 0.2 m
Radar Cross Section
Medium (>0.1 m² and <1 m²)

Expand to show TLE details & history
Last TLE update: 12 hours ago

TLE from 12 hours ago
0 TRANSIT 11 DEB
1 11991U 66005H   26128.10599380  .00000650  00000-0  50187-3 0  9997
2 11991  90.1599 341.8035 0176715 104.0355  56.5550 13.84828805 15857
Epoch: 2026-05-08T02:32Z
TLE epoch observation values (Epoch: 2026-05-08T02:32:37.864Z)
Latitude
17.68809°
Longitude
-102.24609°
Altitude
879.5 km
Speed
7.449 km/s
True Right ascension
10h 47m 25s
True Declination
17° 35' 26"
Sunlit
Object was in daylight at epoch
Visualization orbit readout
Latitude
Unknown
Longitude
Unknown
Altitude
Unknown
Speed
Unknown
Apparent Right ascension
Unknown
Apparent Declination
Unknown
Sunlit
N/A
Visualization observer readout
Local Sidereal Time
22:47:15
Azimuth
Unknown
Elevation
Unknown
Doppler factor
Unknown
Orbital elements
Apogee altitude
1,073.197 km
Perigee altitude
814.417 km
Semi-major axis
7,321.944 km
Eccentricity
0.01767
Inclination
90.1599°
RAAN
341.8035°
Arg. of periapsis
104.0355°
True anomaly
58.26525°
Mean anomaly
56.555°
Eccentric anomaly
57.40806°
Mean motion
3.4642 °/min
Orbital period
103.92 mins
BSTAR
0.00050187
Loading maneuver chart data...
Computing Atmospheric mass density...
Loading historical data...
Loading historical data...
Loading historical data...
Loading historical data...
Loading historical data...
Loading historical data...
Loading historical data...

Documentation

Showing up to 5 results
|